Regional Weather Roundup
Issued by NWS Memphis, TN

Home | Current Version | Previous Version | Text Only | Print | Product List | Glossary On
Versions: 1 2 3 4 5 6 7 8 9 10 11 12 13 14 15 16 17 18 19 20 21 22 23 24 25 26 27 28 29 30 31 32 33 34 35 36 37 38 39 40 41 42 43 44 45 46 47 48 49 50
000
ASUS44 KMEG 170910
RWRMEG
MEMPHIS CWA HOURLY WEATHER ROUNDUP
NATIONAL WEATHER SERVICE MEMPHIS TN
300 AM CST SUN DEC 17 2017

...WEST TENNESSEE...

CITY           SKY/WX    TMP DP  RH WIND       PRES   REMARKS
MEMPHIS INTL   RAIN      46  37  71 NE5       30.14F
NWS MEMPHIS      N/A     44 N/A N/A MISG        N/A
JACKSON        CLOUDY    46  33  60 W3        30.17R
COVINGTON      CLOUDY    41  37  87 CALM      30.17S FOG
SOMERVILLE     CLOUDY    46  32  57 CALM      30.14S
BOLIVAR        CLOUDY    45  30  57 CALM      30.15S
LEXINGTON      CLOUDY    43  30  61 CALM      30.15F
SELMER         MOCLDY    43  30  61 CALM      30.14R
SAVANNAH       CLOUDY    45  30  57 SE5       30.11F
DYERSBURG      LGT RAIN  45  33  63 S5        30.17
UNION CITY     CLOUDY    43  32  65 S3        30.15S
PARIS          MOCLDY    43  30  61 CALM      30.15S
HUNTINGDON     CLOUDY    45  32  61 CALM      30.15F


...EASTERN ARKANSAS...

CITY           SKY/WX    TMP DP  RH WIND       PRES   REMARKS
JONESBORO      LGT RAIN  43  41  93 CALM      30.15S
WEST MEMPHIS   RAIN      41  41 100 NE8       30.12F FOG
BATESVILLE     LGT RAIN  43  42  97 CALM      30.14R FOG
NEWPORT        RAIN      42  41  96 CALM      30.14F FOG
WALNUT RIDGE   RAIN      42  40  92 S7        30.15R
BLYTHEVILLE    LGT RAIN  44  38  79 S7        30.16F
SEARCY         RAIN      43  43 100 SW6       30.18R FOG
STUTTGART      LGT RAIN  43  42  97 N3        30.16R FOG
PINE BLUFF     RAIN      43  43 100 CALM      30.18S FOG
MONTICELLO     LGT RAIN  43  41  93 W8        30.20R FOG


...NORTH MISSISSIPPI...

CITY           SKY/WX    TMP DP  RH WIND       PRES   REMARKS
TUPELO         CLOUDY    44  28  53 CALM      30.14R
BATESVILLE     RAIN      44  34  68 CALM      30.13F
TUNICA         RAIN     N/A N/A N/A E5        30.12F
CLARKSDALE     CLOUDY    45  41  87 E9        30.08F
CORINTH        CLOUDY    43  34  70 SW7       30.17R
GREENWOOD      LGT RAIN  49  34  56 NE8       30.04S
COLUMBUS       CLOUDY    46  32  57 CALM      30.12F
STARKVILLE     CLOUDY    46  32  57 SE7       30.11F
GOLDEN TRIANGL CLOUDY    47  30  51 SE9       30.12F


...SOUTHEAST MISSOURI...

CITY           SKY/WX    TMP DP  RH WIND       PRES   REMARKS
KENNETT        CLOUDY    43  41  93 SW6       30.14S
MALDEN         DRIZZLE   43  36  75 S5        30.16R
WEST PLAINS    LGT RAIN  41  37  86 SW8       30.10S
POPLAR BLUFF   LGT RAIN  43  36  76 SW10      30.14R
CAPE GIRARDEAU CLOUDY    43  32  65 S6        30.14R


...NORTHWEST ALABAMA...

CITY           SKY/WX    TMP DP  RH WIND       PRES   REMARKS
MUSCLE SHOALS  CLOUDY    40  30  67 E7        30.16F


...MIDDLE TENNESSEE...

CITY           SKY/WX    TMP DP  RH WIND       PRES   REMARKS
NASHVILLE      CLOUDY    42  30  62 E5        30.18F
CLARKSVILLE    CLOUDY    42  29  59 CALM      30.19R
COLUMBIA       CLOUDY    41  30  65 CALM      30.14F


...WESTERN KENTUCKY...

CITY           SKY/WX    TMP DP  RH WIND       PRES   REMARKS
PADUCAH        CLOUDY    44  30  57 S3        30.14S
FORT CAMPBELL  CLOUDY    41  30  64 SE3       30.17R


...CENTRAL ARKANSAS...

CITY           SKY/WX    TMP DP  RH WIND       PRES   REMARKS
LITTLE ROCK    RAIN      43  43 100 CALM      30.16R FOG


SKY/WX REPORTED AS FAIR MEANS FEW OR NO CLOUDS BELOW
12 THOUSAND FEET.





USA.gov is the U.S. government's official web portal to all federal, state and local government web resources and services.